Theta_e
312 315 316 316 316 316 316 316 317 315 312 314 316 316 311 305 304 304 303 303 302 301 304 306 309 314 318 319 320 321 322 323 324 325 325 323 322 319 318 317 317 317 316 316
312 315 316 313 313 313 313 316 316 314 311 312 314 314 312 306 305 304 303 302 301 300 302 305 308 312 317 317 318 319 320 321 321 320 320 318 316 315 314 313 313 313 312 311
316 315 312 311 310 312 313 315 316 316 312 311 312 315 313 304 302 301 301 301 300 300 299 304 307 310 312 315 316 317 317 318 317 316 313 311 310 309 308 306 305 304 303 302
313 311 310 311 312 312 315 312 312 312 314 319 311 322 314 308 305 302 301 300 300 299 300 302 303 306 307 307 307 307 307 307 307 307 306 305 305 304 301 300 299 298 297 296
314 311 312 313 313 311 316 310 311 312 314 314 314 316 318 306 306 304 302 301 300 298 299 300 301 301 301 301 302 302 302 303 303 303 303 302 301 299 297 295 294 294 293 293
314 308 311 313 309 311 309 311 311 311 313 317 317 316 318 312 310 307 303 301 299 296 295 296 296 297 298 298 299 299 299 299 298 298 297 297 297 295 294 293 293 292 291 291
314 312 309 308 311 308 310 314 318 319 317 319 311 312 317 313 307 307 304 302 300 296 294 294 294 294 295 296 296 296 297 297 296 296 295 295 294 293 292 291 291 290 290 289
319 320 311 309 315 313 311 316 320 323 320 318 309 316 316 306 305 303 304 302 299 296 294 294 294 294 294 295 295 295 295 295 294 293 293 293 292 292 291 291 291 290 289 289
318 319 309 307 307 312 311 313 312 311 306 317 317 313 310 303 303 303 303 301 299 297 294 294 294 294 294 294 294 294 294 294 292 292 292 292 291 291 291 290 290 289 288 288
315 318 309 306 308 307 310 311 314 314 322 323 317 316 317 309 307 304 303 301 300 297 295 293 293 293 293 293 293 293 293 292 292 291 291 291 290 290 290 289 289 288 287 287
312 315 311 308 310 313 309 311 311 314 316 321 320 316 312 313 310 306 304 302 301 298 295 294 294 294 293 292 292 292 291 291 290 290 290 290 289 289 289 288 288 287 287 287
314 316 315 312 308 306 311 313 313 319 314 312 313 317 305 307 308 307 305 303 301 299 296 295 294 294 292 292 291 291 290 290 290 289 289 289 289 288 288 288 288 287 287 287
312 316 321 317 311 307 309 310 312 314 314 317 319 317 304 305 304 305 306 303 301 299 297 295 294 293 292 291 291 290 290 289 289 289 289 288 288 288 288 288 288 288 287 287
312 315 319 323 320 316 313 312 310 313 318 317 315 315 307 307 307 305 303 303 301 299 297 295 294 294 293 292 291 290 289 290 289 289 288 288 288 288 288 288 288 288 287 287
312 316 316 317 313 313 315 314 311 312 315 317 316 314 313 309 307 306 305 303 301 299 297 296 295 295 294 292 291 290 289 289 289 289 289 288 288 288 288 288 288 287 287 287
309 315 315 316 313 308 311 312 311 311 313 314 314 314 311 309 307 305 304 302 300 299 299 299 297 295 295 294 292 290 290 289 289 289 289 288 288 288 288 288 288 287 287 286
307 312 311 318 311 308 311 312 310 311 311 312 312 312 307 306 305 305 304 301 302 302 302 300 299 297 296 295 293 292 291 290 289 289 289 288 288 288 288 288 287 287 286 285
307 308 310 308 306 313 310 298 307 310 309 308 306 304 305 306 305 304 304 305 304 303 302 302 299 296 296 296 295 292 290 290 290 290 289 288 288 288 287 287 287 286 285 283
301 307 304 307 308 309 303 296 302 306 308 305 307 302 301 297 298 299 303 303 302 302 302 301 300 299 298 296 295 292 291 290 290 289 288 288 288 287 287 286 286 285 284 282
298 302 311 304 310 313 309 294 294 300 307 299 304 305 297 295 304 305 300 299 298 298 299 300 299 298 297 297 294 291 291 290 289 289 288 288 287 287 286 286 285 284 283 281
301 302 308 306 309 306 303 293 293 306 309 297 300 301 294 298 301 297 296 296 296 296 296 295 294 294 295 295 292 291 290 289 289 288 288 287 287 286 286 285 285 283 281 280
304 305 304 307 309 308 292 291 301 302 293 297 296 299 297 296 295 295 295 295 294 293 292 292 293 293 293 292 291 290 289 289 288 288 288 287 286 286 285 285 283 281 280 280
303 304 306 306 307 293 292 294 295 295 296 295 296 296 295 294 293 292 292 292 292 292 292 292 292 292 291 290 290 290 289 288 288 288 287 286 286 285 285 283 281 280 280 279
293 290 298 299 294 293 292 293 295 295 296 296 295 295 294 294 293 292 292 292 292 291 291 291 291 290 290 290 289 289 288 288 288 288 287 286 285 285 284 281 281 280 279 279
294 292 292 292 290 291 292 293 295 295 294 293 293 294 294 294 293 292 292 292 292 291 291 291 290 290 290 289 289 289 289 288 287 287 286 285 285 284 282 281 280 279 279 278
290 291 293 296 293 295 295 297 297 294 294 294 293 293 293 292 292 292 291 291 291 291 290 290 290 290 290 289 289 289 289 288 287 286 285 285 284 283 280 280 279 278 278 277
Wind_Speed
5 8 14 19 19 4 3 5 9 4 3 4 12 12 12 9 7 7 6 6 5 5 6 9 11 12 15 17 17 18 19 22 21 20 17 15 14 13 10 7 6 3 3 1
5 15 15 3 10 10 7 9 12 6 4 4 10 13 7 11 8 7 8 8 8 8 9 12 14 16 18 19 20 20 19 19 17 15 13 12 11 12 11 10 7 6 3 3
14 3 13 8 8 11 13 14 11 9 1 4 6 13 13 5 6 7 7 9 9 10 12 15 18 20 21 21 21 20 19 17 16 16 16 17 18 18 16 15 14 14 12 11
11 5 8 11 12 12 14 12 10 8 4 9 3 7 4 7 8 10 12 13 13 15 18 20 23 25 25 25 24 24 23 22 21 19 18 17 17 18 17 15 14 12 11 10
6 10 10 9 8 10 5 5 9 6 11 5 8 6 4 5 11 13 18 18 17 17 20 23 25 27 27 26 24 23 21 21 20 18 16 16 16 15 14 13 9 9 8 8
4 1 5 5 3 6 13 7 5 3 3 8 15 12 7 7 8 16 22 23 22 20 21 22 25 26 25 24 22 21 19 19 18 17 16 14 13 13 12 11 8 7 7 7
6 7 4 5 5 3 5 11 4 5 5 6 3 8 11 7 8 17 28 30 26 23 24 25 26 25 24 23 21 20 19 18 16 15 14 13 12 12 9 9 8 7 7 9
13 8 16 12 13 9 15 15 5 7 5 2 2 7 5 1 6 5 24 28 27 26 26 26 26 25 24 23 21 19 17 16 15 14 14 13 11 9 7 6 6 6 8 9
10 7 4 5 4 11 10 11 2 6 2 2 5 4 5 4 6 10 21 26 29 29 30 32 30 27 25 24 21 18 16 15 15 13 11 11 8 6 4 3 4 6 9 11
6 3 2 3 4 0 6 12 5 4 5 6 5 6 9 11 16 13 20 30 30 28 29 30 31 29 27 24 22 20 17 15 14 13 11 8 6 4 2 3 5 7 9 11
5 3 3 5 12 18 6 7 4 2 4 4 4 5 5 12 16 19 24 30 34 34 33 35 35 32 29 27 26 23 22 19 16 13 10 8 5 1 2 4 7 9 11 13
11 3 5 14 0 3 8 9 12 7 6 4 3 6 4 3 9 19 23 29 32 34 36 37 37 36 34 31 29 26 24 20 16 13 11 8 5 2 3 6 8 11 14 16
12 6 3 2 4 2 9 11 13 7 2 11 7 5 3 4 8 16 18 22 29 33 34 36 37 38 37 35 32 30 26 22 18 16 12 10 7 4 5 8 10 12 16 19
19 7 15 17 11 11 12 18 16 15 9 10 18 13 7 10 11 15 19 22 26 32 36 38 37 41 40 38 35 33 29 24 22 18 15 11 11 9 10 11 12 15 19 22
10 9 18 23 9 7 12 21 22 23 25 17 20 21 15 16 16 22 24 22 25 32 36 43 45 47 44 41 37 34 30 27 24 20 16 15 15 13 13 13 15 18 22 24
4 8 15 22 15 9 6 14 23 26 24 22 18 17 4 18 14 14 22 25 27 33 44 50 50 49 48 43 39 35 32 29 25 22 18 19 16 16 15 16 18 21 23 25
5 7 6 19 11 7 5 21 17 16 18 20 15 18 6 7 13 20 21 24 31 37 41 45 50 52 50 45 38 34 35 31 27 22 21 20 18 18 18 19 20 23 25 27
8 6 4 2 3 8 4 3 13 18 7 10 5 3 6 9 16 16 19 23 26 28 31 34 39 43 46 39 34 38 36 30 26 24 23 21 20 21 21 21 21 23 26 27
1 5 3 4 6 4 2 5 8 8 9 9 15 5 6 5 3 7 15 19 19 19 21 21 24 30 34 38 38 35 33 30 26 25 22 22 23 23 22 22 22 24 26 28
1 4 5 3 5 9 3 2 3 3 6 10 17 11 10 11 5 8 11 16 15 13 14 15 17 22 25 30 35 34 30 26 24 21 21 23 24 23 22 22 22 24 26 31
5 3 10 6 5 4 4 6 9 7 4 9 20 13 16 7 8 4 6 14 14 13 16 18 19 21 23 27 30 28 25 23 20 20 23 24 23 22 21 21 23 24 27 30
8 9 4 3 4 7 9 6 7 3 5 13 16 19 20 16 11 10 13 16 17 16 16 16 18 20 23 25 25 24 23 22 21 22 23 22 21 21 21 22 22 24 27 29
4 4 4 7 4 1 21 2 12 10 18 16 17 18 20 19 21 21 19 16 14 15 15 18 21 23 24 24 23 23 24 25 24 23 22 21 21 21 22 21 22 24 26 28
4 2 2 2 2 2 16 6 12 12 8 11 15 16 18 21 25 22 17 14 14 15 16 20 24 27 26 23 22 23 26 27 25 23 22 22 22 22 22 21 22 23 25 26
2 8 5 2 4 3 6 25 13 17 14 10 13 14 16 20 24 20 12 12 14 17 19 24 27 29 27 21 21 25 28 28 27 25 23 24 24 24 23 22 22 23 23 24
8 6 5 4 10 6 7 21 25 22 17 16 16 18 18 21 20 19 15 16 18 19 23 25 29 32 30 27 27 29 31 30 29 26 26 25 25 25 24 24 22 21 22 21
Wind_Direction
166 205 217 210 213 233 195 214 228 205 172 235 239 252 202 194 196 201 195 169 145 134 138 141 140 136 128 124 122 128 134 136 139 140 143 145 144 137 146 143 129 125 99 35
166 228 227 209 201 205 217 240 239 271 207 241 255 251 196 198 211 204 182 170 153 136 134 143 145 142 140 136 132 131 133 131 134 139 149 148 140 136 127 124 131 129 123 100
211 185 188 164 173 199 225 227 234 259 159 232 276 259 228 180 175 169 167 165 155 147 138 135 138 138 137 137 136 140 142 143 143 137 129 124 123 119 117 113 109 99 90 83
238 178 164 189 209 198 232 215 230 226 233 259 216 281 212 197 189 193 183 181 171 161 148 138 135 134 134 132 130 129 128 126 123 123 124 125 122 122 112 104 92 87 79 67
199 177 179 193 207 186 268 150 204 211 230 264 205 259 219 173 214 201 192 189 181 172 160 149 143 137 132 128 128 129 128 128 126 125 127 129 128 120 114 103 96 85 71 59
261 167 197 201 106 193 136 107 85 101 189 250 230 219 193 204 215 185 190 191 184 177 169 160 151 143 138 136 135 135 136 134 134 135 133 126 118 113 112 109 103 80 63 49
206 213 174 167 117 100 178 164 173 213 209 246 137 206 250 210 183 193 185 188 184 181 177 170 161 154 148 146 145 145 146 144 141 140 135 128 121 115 107 97 73 60 38 21
201 228 183 189 208 179 189 189 197 203 202 190 119 228 240 115 157 186 191 185 181 184 184 179 172 166 159 157 155 155 153 151 149 148 140 132 122 115 97 72 59 17 3 359
193 241 184 183 149 163 183 212 142 106 67 248 209 230 236 183 190 170 180 184 188 189 188 185 180 175 171 169 164 164 164 163 161 155 147 138 131 115 91 53 13 354 340 338
196 195 207 120 121 95 208 150 172 223 207 229 213 244 232 206 205 188 185 191 193 193 193 191 187 184 182 177 174 173 174 177 173 167 162 155 142 132 88 6 345 331 323 321
154 224 134 144 210 191 159 188 212 199 216 222 256 224 208 212 198 192 197 194 192 193 195 195 194 192 190 188 185 183 184 183 183 178 174 170 165 153 346 338 322 318 318 320
195 134 174 203 90 304 242 215 192 200 186 243 294 250 153 177 194 197 196 197 196 197 198 199 198 196 196 194 191 190 188 187 187 188 191 194 195 224 309 310 312 315 317 316
173 189 193 232 208 169 217 204 218 240 72 206 203 241 162 163 175 202 202 195 197 198 198 201 202 201 201 199 197 194 193 193 196 200 204 212 221 247 282 296 304 311 314 314
188 163 205 220 227 161 205 205 201 197 217 204 227 232 198 200 204 194 200 201 199 201 201 202 204 205 205 203 202 199 198 200 202 208 213 222 238 248 271 291 301 314 318 317
175 229 224 243 259 229 211 202 196 208 218 209 235 226 213 199 199 205 204 198 192 200 202 207 209 210 209 206 205 204 203 206 208 212 223 232 238 256 273 286 299 312 315 313
202 225 227 244 227 221 230 212 210 215 219 229 243 248 196 198 201 200 208 197 199 203 210 214 213 213 213 210 207 206 208 210 215 217 228 236 248 262 270 282 293 303 309 310
182 211 189 236 211 182 239 222 201 211 217 219 218 236 135 181 206 210 210 205 211 217 220 218 219 219 218 214 209 212 213 214 216 223 234 241 252 262 268 277 285 298 305 308
176 191 189 135 153 212 229 334 209 210 192 216 257 177 183 212 217 227 226 224 225 227 229 231 227 222 223 217 213 215 213 216 220 229 236 244 254 260 265 275 286 297 304 307
344 179 171 187 208 339 257 200 169 173 227 191 220 201 185 178 189 239 217 222 232 239 240 241 240 233 222 214 216 214 211 215 223 230 240 250 255 258 266 276 288 299 303 307
190 288 220 156 210 214 161 212 166 130 257 199 197 202 163 149 207 239 230 223 220 224 220 200 199 207 211 212 210 209 211 218 224 239 252 253 255 260 267 279 291 298 301 307
160 182 223 200 215 262 253 166 158 159 255 174 194 177 157 188 211 215 214 197 193 191 187 190 196 202 205 203 202 207 211 219 235 245 249 251 255 261 271 283 291 294 301 307
178 172 185 189 217 254 147 112 187 159 133 163 184 196 198 204 195 191 178 173 173 182 192 202 205 202 197 197 199 206 219 229 232 241 247 251 256 264 274 281 284 293 301 307
219 203 188 204 190 157 180 129 201 165 155 173 182 192 204 189 176 167 167 177 196 209 215 213 207 199 197 199 209 225 231 228 233 241 246 250 256 264 271 273 282 293 302 307
235 186 202 170 179 211 200 204 184 191 199 204 204 206 200 195 186 182 186 198 201 207 215 213 207 205 206 213 229 232 231 234 238 243 247 252 257 263 266 269 281 292 301 304
128 148 142 283 257 278 242 212 202 213 218 215 206 200 200 198 195 197 202 209 218 223 228 223 220 216 217 235 243 241 240 240 240 243 247 252 257 260 260 267 279 290 296 299
180 158 182 214 202 184 202 213 222 224 225 225 219 212 212 210 208 214 220 222 225 234 233 231 229 226 228 241 246 245 243 242 241 243 247 251 255 256 258 266 275 284 290 294